Hourly Data Report for October 26, 2015

All times are specified in Local Standard Time (LST). Add 1 hour to adjust for Daylight Saving Time where and when it is observed.

RESOLUTE BAY A
NUNAVUT

74°43'01.000" N
94°58'10.000" W
67.70 m
2403498
71924
YRB

Download Data

Hourly Data (October 2015)
Hourly Data Report for October 26, 2015
Temp Definition
°C
Dew Point Temp Definition
°C
Rel Hum Definition
%
Wind Dir Definition
10's deg

Wind Spd Definition
km/h
Visibility Definition
km
Stn Press Definition
kPa
Hmdx Definition


Wind Chill Definition


Weather Definition


TIME
00:00 Legend Double Dagger -17.5 -19.6 84 35 55 0.4 99.46   -33 Blowing Snow
01:00 Legend Double Dagger -18.0 -20.2 83 36 51 0.6 99.42   -33 Blowing Snow
02:00 Legend Double Dagger -18.4 -20.6 83 35 45 0.8 99.52   -33 Blowing Snow
03:00 Legend Double Dagger -18.6 -21.0 82 1 49 0.8 99.53   -33 Blowing Snow
04:00 Legend Double Dagger -18.8 -21.0 83 33 43 0.6 99.53   -33 Blowing Snow
05:00 Legend Double Dagger -18.9 -21.1 83 36 58 1.0 99.56   -35 Blowing Snow
06:00 Legend Double Dagger -18.4 LegendMM LegendMM 36 46 1.0 99.61   -33 Blowing Snow
07:00 Legend Double Dagger -18.7 LegendMM LegendMM 32 46 1.2 99.67   -33 Blowing Snow
08:00 Legend Double Dagger -18.7 -20.8 84 0 LegendMM 0.8 99.64     Blowing Snow
09:00 Legend Double Dagger -18.7 -22.4 73 36 37 1.6 99.62   -32 Blowing Snow
10:00 Legend Double Dagger -17.5 -20.0 81 1 45 0.8 99.62   -31 Blowing Snow
11:00 Legend Double Dagger -19.0 -21.5 81 35 53 1.6 99.73   -34 LegendNANA
12:00 Legend Double Dagger -19.9 -22.4 81 35 52 1.6 99.69   -35 Blowing Snow
13:00 Legend Double Dagger -20.4 -23.0 80 1 48 1.2 99.68   -36 Blowing Snow
14:00 Legend Double Dagger -20.2 -22.4 83 1 48 1.2 99.69   -35 Blowing Snow
15:00 Legend Double Dagger -20.3 -22.8 81 36 48 6.4 99.74   -36 Blowing Snow
16:00 Legend Double Dagger -20.3 -22.9 80 34 36 1.6 99.81   -34 Blowing Snow
17:00 Legend Double Dagger -19.7 -22.3 80 35 48 1.2 99.75   -35 Blowing Snow
18:00 Legend Double Dagger -21.2 -23.8 80 34 32 12.9 99.80   -34 Clear
19:00 Legend Double Dagger -19.3 -21.8 81 34 46 1.2 99.82   -34 Blowing Snow
20:00 Legend Double Dagger -20.4 -23.5 77 33 40 12.9 99.89   -35 Blowing Snow
21:00 Legend Double Dagger -18.8 -21.2 82 1 58 6.4 99.84   -35 Blowing Snow
22:00 Legend Double Dagger -20.3 -22.8 81 36 35 24.1 99.88   -34 LegendNANA
23:00 Legend Double Dagger -19.5 -22.1 80 36 41 24.1 99.91   -34 LegendNANA

Notes on Data Quality.

Legend

  • E = Estimated
  • M = Missing
  • NA = Not Available
  • ‡ = Partner data that is not subject to review by the National Climate Archives
Date modified: